Weather History for Cleveland Burke, OH

Change the Weather History Date:

Sunday, March 10, 2013

  Actual Average Record
Temperature  
Mean Temperature 58 °F -  
Max Temperature 69 °F 39 °F 69 °F (2013)
Min Temperature 48 °F 27 °F 12 °F (2005)
Degree Days  
Heating Degree Days 6    
Growing Degree Days 8 (Base 50)    
Moisture  
Dew Point 32 °F    
Average Humidity 36    
Maximum Humidity 49    
Minimum Humidity 26    
Precipitation  
Precipitation 0.00 in - - ()
Sea Level Pressure  
Sea Level Pressure 29.96 in    
Wind  
Wind Speed 14 mph (SSE)    
Max Wind Speed 20 mph    
Max Gust Speed 29 mph    
Visibility 10 miles    
Events      
Averages and records for this station are not official NWS values.
T = Trace of Precipitation, MM = Missing Value Source: NWS Daily Summary

Daily Weather History Graph

Daily Weather History Graph

Search for Another Location

Airport:

Trip Planner

Search our weather history database for the weather conditions in past years. The results will help you decide how hot, cold, wet, or windy it might be!

Date:

Astronomy

Mar. 10, 2013 Rise Set
Actual Time 7:46 AM EDT 7:28 PM EDT
Civil Twilight 7:18 AM EDT 7:55 PM EDT
Nautical Twilight 6:46 AM EDT 8:27 PM EDT
Astronomical Twilight 6:14 AM EDT 9:00 PM EDT
Moon 6:46 AM EDT (3/10) 6:34 PM EDT (3/10)
Length of Visible Light 12h 36m
Length of Day
11h 41m
Waning Crescent, 2% of the Moon is Illuminated
Mar 10
Waning Crescent
Mar 11
New
Mar 19
First Quarter
Mar 27
Full
Apr 3
Last Quarter

Hourly Weather History & Observations

Time (EDT) Temp. Dew Point Humidity Pressure Visibility Wind Dir Wind Speed Gust Speed Precip Events Conditions
12:53 AM 48.9 °F 28.0 °F 44% 30.07 in 10.0 mi SSE 15.0 mph 20.7 mph N/A   Mostly Cloudy
1:53 AM 48.9 °F 28.0 °F 44% 30.07 in 10.0 mi SSE 12.7 mph - N/A   Clear
3:53 AM 48.9 °F 27.0 °F 43% 30.03 in 10.0 mi SSE 15.0 mph - N/A   Clear
4:53 AM 48.9 °F 27.0 °F 43% 30.01 in 10.0 mi SSE 16.1 mph 25.3 mph N/A   Clear
5:53 AM 50.0 °F 27.0 °F 41% 30.03 in 10.0 mi South 13.8 mph 21.9 mph N/A   Overcast
6:53 AM 51.1 °F 28.0 °F 41% 30.03 in 10.0 mi South 19.6 mph 25.3 mph N/A   Overcast
8:53 AM 51.1 °F 30.9 °F 46% 30.04 in 10.0 mi SSE 17.3 mph - 0.00 in   Mostly Cloudy
9:53 AM 52.0 °F 33.1 °F 49% 30.04 in 10.0 mi SSE 13.8 mph 21.9 mph N/A   Partly Cloudy
10:53 AM 57.0 °F 34.0 °F 42% 30.03 in 10.0 mi South 13.8 mph - N/A   Clear
11:53 AM 62.1 °F 34.0 °F 35% 30.01 in 10.0 mi South 17.3 mph 28.8 mph N/A   Mostly Cloudy
12:53 PM 64.9 °F 35.1 °F 33% 29.99 in 10.0 mi South 13.8 mph 21.9 mph N/A   Clear
1:53 PM 68.0 °F 37.0 °F 32% 29.96 in 10.0 mi South 12.7 mph 21.9 mph N/A   Clear
2:53 PM 64.9 °F 34.0 °F 32% 29.95 in 10.0 mi South 15.0 mph - N/A   Clear
3:53 PM 68.0 °F 35.1 °F 30% 29.94 in 10.0 mi South 9.2 mph 21.9 mph N/A   Clear
4:53 PM 69.1 °F 33.1 °F 26% 29.94 in 10.0 mi South 15.0 mph 21.9 mph N/A   Clear
5:53 PM 66.9 °F 34.0 °F 30% 29.92 in 10.0 mi South 10.4 mph 18.4 mph N/A   Clear
6:53 PM 66.0 °F 34.0 °F 30% 29.91 in 10.0 mi South 12.7 mph - N/A   Clear
7:53 PM 64.9 °F 33.1 °F 31% 29.91 in 10.0 mi South 8.1 mph - N/A   Clear
8:53 PM 61.0 °F 33.1 °F 35% 29.89 in 10.0 mi SE 4.6 mph - N/A   Clear
9:53 PM 64.0 °F 34.0 °F 33% 29.88 in 10.0 mi SSE 11.5 mph - N/A   Clear
10:53 PM 64.0 °F 33.1 °F 31% 29.86 in 10.0 mi South 11.5 mph - N/A   Clear
11:53 PM 64.0 °F 33.1 °F 31% 29.84 in 10.0 mi SSE 13.8 mph 20.7 mph N/A   Clear
12:53 AM 63.0 °F 33.1 °F 33% 29.83 in 10.0 mi SSE 16.1 mph 20.7 mph N/A   Clear